This demonstration page uses our WeatherBlox Daily Observations layout. Learn more.

Left ArrowRight Arrow

39.51506, -84.39828

Hourly Observations for April 12, 2016

Temp ( °F °C ) Dew Point ( °F °C ) Humidity (%) Winds ( mph kmh ) Pressure ( in mb ) Visibility ( mi km ) Precip ( " mm )
12:15 am 00:15 Clear 47 8.2 39 4 75 75 NW 12 19 30.09 1019 10 16 N/A
12:35 am 00:35 Partly Cloudy 47 8.2 39 4 75 75 NNW 7 11 30.09 1019 10 16 N/A
12:55 am 00:55 Cloudy 46 8 39 4.1 77 77 N 6 9 30.12 1020 10 16 N/A
1:15 am 01:15 Partly Cloudy 43 6.3 37 3 80 80 N 5 7 30.12 1020 10 16 N/A
1:35 am 01:35 Clear 43 5.9 36 2.3 78 78 NNW 3 6 30.12 1020 10 16 N/A
1:55 am 01:55 Clear 40 4.7 36 2.1 83 83 N N/A 30.18 1022 10 16 N/A
2:15 am 02:15 Clear 41 4.8 36 2.3 84 84 NNW 5 7 30.18 1022 10 16 N/A
2:35 am 02:35 Clear 39 4 33 0.6 79 79 N N/A 30.18 1022 10 16 N/A
2:55 am 02:55 Clear 37 2.6 33 0.5 86 86 N N/A 30.18 1022 10 16 N/A
3:15 am 03:15 Clear 37 2.6 33 0.7 87 87 N N/A 30.18 1022 10 16 N/A
3:35 am 03:35 Clear 35 1.4 31 -0.3 89 89 N N/A 30.18 1022 7 11 N/A
3:55 am 03:55 Clear 37 2.6 34 1 89 89 N N/A 30.18 1022 7 11 N/A
4:15 am 04:15 Clear 36 2.2 33 0.4 88 88 N N/A 30.18 1022 7 11 N/A
4:35 am 04:35 Clear 35 1.9 32 0.1 88 88 N N/A 30.21 1023 7 11 N/A
4:55 am 04:55 Clear 34 1.2 32 -0.2 91 91 N N/A 30.21 1023 7 11 N/A
5:15 am 05:15 Clear 34 1.2 32 -0.2 91 91 N N/A 30.21 1023 10 16 N/A
5:35 am 05:35 Clear 34 1.2 32 -0.2 91 91 N 3 6 30.24 1024 7 11 N/A
5:55 am 05:55 Clear 34 1.2 32 -0.2 91 91 N 3 6 30.24 1024 10 16 N/A
6:15 am 06:15 Clear 34 1.2 32 -0.2 91 91 N 6 9 30.24 1024 7 11 N/A
6:35 am 06:35 Clear 36 2 32 -0.2 86 86 N 3 6 30.27 1025 10 16 N/A
6:55 am 06:55 Clear 36 2.1 31 -0.8 81 81 N N/A 30.27 1025 10 16 N/A
7:15 am 07:15 Sunny 34 1.2 31 -0.7 87 87 N N/A 30.27 1025 10 16 N/A
7:35 am 07:35 Sunny 35 1.9 30 -1.1 81 81 N N/A 30.30 1026 10 16 N/A
7:55 am 07:55 Sunny 37 2.6 31 -0.8 79 79 N 5 7 30.30 1026 10 16 N/A
8:15 am 08:15 Sunny 37 2.6 30 -1.3 76 76 N 6 9 30.33 1027 10 16 N/A
8:35 am 08:35 Sunny 39 4 30 -0.9 71 71 N 7 11 30.33 1027 10 16 N/A
8:55 am 08:55 Sunny 40 4.2 28 -2 64 64 N 7 11 30.33 1027 10 16 N/A
9:15 am 09:15 Sunny 41 4.9 26 -3.5 55 55 N 10 17 30.33 1027 10 16 N/A
9:35 am 09:35 Sunny 42 5.5 24 -4.2 50 50 NNE 10 17 30.36 1028 10 16 N/A
9:55 am 09:55 Sunny 43 5.9 24 -4.6 47 47 N 9 15 30.36 1028 10 16 N/A
10:20 am 10:20 Sunny 44 6.4 24 -4.7 45 45 NE 9 15 30.36 1028 10 16 N/A
10:35 am 10:35 Sunny 44 6.8 22 -5.5 41 41 NNE 7 11 30.33 1027 10 16 N/A
10:55 am 10:55 Sunny 46 7.5 24 -4.2 44 44 NNE 10 17 30.33 1027 10 16 N/A
11:15 am 11:15 Sunny 47 8.1 26 -3.6 44 44 NNE 8 13 30.36 1028 10 16 N/A
11:35 am 11:35 Sunny 47 8.2 26 -3.6 43 43 NNW 12 19 30.33 1027 10 16 N/A
11:55 am 11:55 Sunny 47 8.3 24 -4.2 41 41 N 6 9 30.36 1028 10 16 N/A
12:15 pm 12:15 Sunny 49 9.6 28 -2.5 43 43 N 9 15 30.36 1028 10 16 N/A
12:35 pm 12:35 Sunny 49 9.6 26 -3.2 41 41 NNE 10 17 30.36 1028 10 16 N/A
12:55 pm 12:55 Sunny 49 9.6 26 -3.6 40 40 NNW 8 13 30.36 1028 10 16 N/A
1:15 pm 13:15 Sunny 49 9.6 24 -4.4 37 37 N 14 22 30.36 1028 10 16 N/A
1:35 pm 13:35 Sunny 49 9.6 25 -3.8 39 39 N 5 7 30.36 1028 10 16 N/A
1:55 pm 13:55 Sunny 49 9.6 24 -4.5 37 37 NNE 13 20 30.33 1027 10 16 N/A
2:15 pm 14:15 Sunny 49 9.6 23 -4.8 36 36 NNE 3 6 30.33 1027 10 16 N/A
2:35 pm 14:35 Sunny 49 9.7 24 -4.6 36 36 N 10 17 30.36 1028 10 16 N/A
2:55 pm 14:55 Sunny 51 10.5 26 -3.6 37 37 N 5 7 30.33 1027 10 16 N/A
3:15 pm 15:15 Sunny 51 10.5 25 -3.8 37 37 NW 7 11 30.33 1027 10 16 N/A
3:35 pm 15:35 Sunny 52 10.9 25 -3.9 35 35 ENE 3 6 30.33 1027 10 16 N/A
3:55 pm 15:55 Sunny 52 11.2 27 -2.9 37 37 N 10 17 30.33 1027 10 16 N/A
4:15 pm 16:15 Sunny 55 12.5 29 -1.7 38 38 N 10 17 30.33 1027 10 16 N/A
4:35 pm 16:35 Sunny 54 12.2 28 -2.4 36 36 NNE 9 15 30.33 1027 10 16 N/A
4:55 pm 16:55 Sunny 53 11.6 26 -3.4 35 35 NE 7 11 30.33 1027 10 16 N/A
5:15 pm 17:15 Sunny 54 12.1 26 -3.1 35 35 N 8 13 30.33 1027 10 16 N/A
5:35 pm 17:35 Sunny 55 12.5 27 -2.7 35 35 NNE 10 17 30.33 1027 10 16 N/A
5:55 pm 17:55 Sunny 55 12.5 27 -2.9 34 34 NNE 7 11 30.33 1027 10 16 N/A
6:15 pm 18:15 Sunny 54 12.3 27 -2.8 35 35 N 5 7 30.33 1027 10 16 N/A
6:35 pm 18:35 Sunny 53 11.8 26 -3.4 35 35 NNE 8 13 30.33 1027 10 16 N/A
6:55 pm 18:55 Sunny 52 11 26 -3.6 36 36 NNE 8 13 30.33 1027 10 16 N/A
7:15 pm 19:15 Sunny 52 11 26 -3.3 37 37 NE 7 11 30.33 1027 10 16 N/A
7:35 pm 19:35 Sunny 49 9.7 25 -3.9 38 38 NNW 5 7 30.33 1027 10 16 N/A
7:55 pm 19:55 Sunny 49 9.6 27 -2.8 42 42 NNE 5 7 30.33 1027 10 16 N/A
8:15 pm 20:15 Clear 49 9.6 28 -2.5 43 43 N 3 6 30.33 1027 10 16 N/A
8:35 pm 20:35 Clear 49 9.6 32 -0.2 51 51 N 3 6 30.33 1027 10 16 N/A
8:55 pm 20:55 Clear 46 7.9 31 -0.3 57 57 N 3 6 30.33 1027 10 16 N/A
9:15 pm 21:15 Clear 43 6.1 31 -0.6 63 63 N 3 6 30.36 1028 10 16 N/A
9:35 pm 21:35 Clear 42 5.3 32 undefined 69 69 N N/A 30.36 1028 10 16 N/A
9:55 pm 21:55 Clear 39 4.1 32 0.1 75 75 N N/A 30.36 1028 10 16 N/A
10:15 pm 22:15 Clear 39 4 33 0.7 79 79 N N/A 30.39 1029 10 16 N/A
10:35 pm 22:35 Clear 39 4 34 1.1 82 82 N N/A 30.39 1029 10 16 N/A
10:55 pm 22:55 Clear 37 2.6 32 undefined 83 83 N N/A 30.39 1029 10 16 N/A
11:15 pm 23:15 Clear 37 2.6 32 undefined 83 83 N 3 6 30.39 1029 10 16 N/A
11:35 pm 23:35 Clear 37 2.6 32 undefined 83 83 N N/A 30.39 1029 10 16 N/A
11:55 pm 23:55 Clear 37 2.6 32 0.1 84 84 N 3 6 30.39 1029 10 16 N/A

Powered by AerisWeather